Wind_Speed
1 3 5 3 2 0 1 1 4 4 4 7 7 7 9 9 11 9 3 6 1 3 7 9 10 13 16 19 20 20 14 11 13 12 9 7 6 6 6 7 8 8 7 6 4 4 4 5 4 6 7 9 12 14 16 18 20 22 23 25 27 28 30 31 32 33 35 36 37 39 41 42 42 43 43 43 43 42 42 42 41 39 38 37 36 35
2 5 3 3 5 5 3 3 2 2 3 5 6 8 8 8 9 3 5 4 2 1 6 7 11 14 17 20 18 14 10 8 8 7 6 6 5 3 3 4 5 4 3 2 3 3 2 2 3 5 8 10 13 16 18 19 21 23 24 25 26 28 29 30 31 32 33 34 36 38 39 41 42 42 43 43 43 43 43 43 42 40 39 38 37 35
4 4 2 5 5 5 4 3 1 2 4 5 5 7 7 6 6 2 6 3 2 2 6 8 10 14 18 19 13 6 4 5 6 5 5 5 4 3 2 2 2 1 2 3 4 5 5 6 7 9 12 13 15 17 19 21 22 23 25 26 27 28 29 30 31 33 34 35 36 37 39 40 41 41 42 42 42 43 43 43 42 41 39 38 37 35
4 1 4 4 3 2 2 2 1 2 4 6 6 6 7 5 6 3 2 1 4 5 7 9 9 12 14 10 2 2 1 4 4 3 2 3 3 3 4 5 5 5 6 6 6 7 7 8 9 12 14 15 16 17 18 20 21 22 24 25 26 27 29 30 32 33 34 36 37 38 39 40 41 41 42 42 43 43 44 43 43 41 40 38 37 35
3 4 4 2 2 0 1 1 3 4 4 6 7 6 7 6 5 6 4 6 8 5 3 8 9 7 5 4 2 4 4 0 2 1 3 4 6 6 8 9 10 10 11 12 12 11 10 10 10 11 12 14 15 17 18 20 21 22 23 24 25 27 28 29 30 32 33 35 36 38 39 40 41 42 42 43 43 43 44 43 42 41 40 39 37 35
2 3 1 2 1 1 2 3 3 4 5 6 3 2 5 5 5 7 8 9 8 3 2 4 8 3 2 3 2 4 4 4 4 6 9 9 9 10 11 12 13 14 14 14 14 13 13 12 12 12 13 15 16 17 19 20 21 22 23 23 24 25 27 28 29 30 31 33 34 36 39 40 42 44 44 44 44 44 44 43 42 41 40 39 37 36
1 2 0 1 2 2 3 5 3 3 5 5 1 3 3 3 4 7 7 6 6 5 1 2 5 5 4 5 2 6 5 7 8 9 12 12 12 13 14 14 14 15 14 14 14 14 14 14 14 14 15 16 17 18 19 20 21 22 22 22 23 24 25 27 27 28 29 30 31 34 37 39 42 44 45 45 45 45 44 43 42 40 39 39 38 36
3 2 1 1 2 4 4 4 2 3 5 3 1 2 3 3 5 6 5 5 6 8 6 4 6 6 6 3 6 7 5 8 9 10 12 13 15 14 14 14 13 13 14 15 15 15 15 14 14 14 15 16 17 19 20 20 21 21 22 23 23 24 25 26 27 27 28 28 28 31 34 37 40 42 43 44 43 42 41 41 41 40 39 39 38 37
1 1 3 3 3 4 2 2 2 2 5 1 2 2 3 4 7 6 5 7 5 6 6 5 7 5 5 2 6 8 5 7 7 9 11 12 14 13 13 13 12 12 13 14 14 13 14 12 12 13 14 16 19 21 22 23 23 23 24 25 25 25 26 27 27 28 28 28 27 28 31 34 37 39 41 42 40 40 41 41 41 41 40 40 39 38
2 1 0 1 3 2 2 3 3 2 3 1 1 4 5 6 7 5 5 6 4 5 5 4 6 4 5 2 3 7 4 6 5 7 9 11 12 12 12 12 12 12 12 13 12 12 12 11 11 13 14 18 21 23 25 26 27 28 28 28 28 28 28 28 28 29 29 29 28 28 29 31 33 35 38 40 40 41 43 44 43 43 42 41 39 38
3 1 0 1 2 2 3 2 1 1 2 2 3 6 7 7 6 4 4 4 4 5 1 3 3 3 4 4 2 3 3 3 5 6 8 9 11 12 12 12 12 12 12 13 13 12 11 11 11 13 16 19 23 25 27 29 30 31 31 31 30 30 30 30 30 30 30 29 29 29 29 28 29 31 34 38 40 41 43 45 45 44 43 41 39 38
4 2 2 1 2 2 1 2 2 1 1 2 5 6 7 4 4 4 4 3 4 3 2 3 2 2 4 5 3 7 6 5 6 7 7 8 10 11 11 11 11 12 13 14 15 14 13 13 13 15 18 21 25 27 29 32 32 32 32 32 32 31 30 31 31 31 30 30 29 29 29 28 27 28 30 35 38 40 42 44 45 44 43 42 40 39
3 1 3 2 1 1 3 3 3 3 3 4 5 4 6 5 3 4 3 3 4 0 4 2 0 2 8 7 4 10 9 9 10 9 8 8 8 9 9 11 11 12 13 14 15 15 14 14 15 17 20 23 26 28 31 34 34 34 33 33 32 32 31 30 31 31 31 30 30 29 29 28 27 27 28 31 34 37 40 42 43 44 43 43 42 40
0 1 3 2 2 1 3 3 1 1 1 2 3 4 5 5 5 7 5 5 5 1 5 3 3 4 10 5 6 11 11 12 12 10 8 7 6 6 8 10 11 12 13 14 14 14 14 14 14 16 19 21 25 29 32 34 35 34 33 32 32 32 31 30 30 30 30 30 30 29 29 29 28 27 27 29 32 34 37 40 42 43 43 43 42 41
3 1 2 1 1 1 3 3 3 3 4 2 2 3 4 3 5 6 6 6 7 4 1 2 1 5 6 1 9 12 12 13 11 8 6 5 6 6 6 8 11 13 13 13 13 14 15 15 14 16 18 20 23 27 32 34 35 35 34 33 32 31 30 30 29 29 30 30 30 30 29 29 29 28 28 28 30 32 35 37 40 42 43 43 43 42
4 2 2 1 1 1 2 1 2 4 4 0 1 2 3 2 3 6 8 8 7 7 4 3 3 5 1 7 11 10 10 10 9 9 6 5 6 6 6 9 11 13 14 15 16 17 18 17 16 17 18 19 20 22 26 30 33 35 35 35 35 35 33 31 30 29 29 29 29 30 30 30 30 29 29 29 29 31 33 35 38 40 42 42 43 42
4 2 3 2 1 1 2 2 2 3 2 0 1 2 0 2 3 6 8 5 4 7 5 4 4 5 1 6 9 9 7 7 7 9 8 7 8 7 7 9 11 14 16 17 18 19 20 18 17 16 17 18 19 21 22 24 26 29 28 28 31 34 33 32 31 30 29 28 29 29 30 31 31 30 30 29 29 30 32 34 36 39 40 41 42 42
3 4 2 2 1 2 2 2 2 1 3 2 2 3 2 1 1 3 5 4 4 7 5 2 4 6 5 1 6 9 6 5 7 9 8 9 10 9 9 11 14 17 18 18 19 20 20 18 17 16 17 18 19 21 21 21 22 23 23 23 25 26 26 26 27 28 28 28 29 30 31 32 32 31 30 29 29 29 30 33 35 37 39 40 41 41
3 5 0 1 0 3 2 3 3 2 1 3 3 3 2 3 2 2 3 5 6 7 7 4 3 5 7 3 6 8 4 5 7 9 8 10 13 13 14 16 18 20 20 21 22 22 21 20 18 17 18 20 21 22 22 22 23 23 23 24 24 23 23 23 23 24 24 25 29 31 32 33 34 33 32 30 29 28 29 32 34 36 38 39 40 40
2 3 1 1 1 2 3 4 2 1 2 1 3 2 0 2 4 3 2 4 6 7 8 6 3 3 4 2 4 6 6 7 9 10 10 13 18 18 18 18 19 21 22 22 23 24 24 23 20 18 19 21 23 23 24 24 24 24 24 24 23 24 25 24 24 25 25 24 29 34 33 33 34 34 33 31 30 29 28 30 33 35 36 37 38 38
2 2 3 0 2 2 2 2 2 2 1 1 3 2 1 2 2 3 3 2 4 7 7 7 7 3 2 4 5 6 7 7 7 8 10 14 18 19 18 18 20 22 22 22 24 26 27 24 21 19 20 22 23 24 25 25 24 24 24 24 25 27 28 27 27 28 28 27 29 35 37 35 34 33 32 31 30 29 28 29 30 33 35 36 36 37
2 3 5 4 4 4 1 3 4 4 2 3 3 3 3 3 2 5 5 1 1 5 5 6 10 6 2 2 5 6 5 4 6 9 11 15 18 18 18 20 23 24 24 24 25 28 28 25 21 19 21 23 24 26 27 25 24 25 27 27 29 30 30 31 30 29 29 28 28 33 38 37 35 33 32 31 30 29 28 28 29 31 33 34 35 35
2 3 5 7 8 3 4 5 4 3 2 2 3 3 3 3 3 6 6 3 1 3 2 5 10 6 2 3 6 6 3 4 9 13 14 16 19 20 22 25 27 27 25 24 27 30 28 23 20 20 22 24 26 28 27 26 27 28 29 30 30 31 31 32 32 30 30 29 29 31 37 38 35 33 32 31 30 28 28 27 27 29 32 33 33 34
1 3 4 7 7 1 6 5 3 2 1 2 3 2 2 2 2 3 5 4 4 6 5 6 9 3 4 4 4 5 6 7 12 15 16 18 20 22 25 28 28 27 26 26 29 31 27 22 20 22 25 28 30 30 28 29 30 30 30 30 30 31 31 31 32 31 30 31 30 31 35 38 36 33 32 30 29 28 27 27 27 28 30 31 32 33
2 3 3 6 7 2 1 1 2 1 1 2 1 1 1 2 3 1 3 3 5 8 7 8 9 3 2 2 3 12 15 13 15 18 19 20 22 25 28 28 26 27 28 31 33 31 24 20 22 27 31 34 35 34 32 31 31 31 31 31 31 32 34 33 33 33 32 33 31 31 35 38 36 34 32 29 28 27 27 26 27 28 29 29 30 31
3 4 3 5 6 6 5 4 2 2 3 4 2 2 2 1 1 2 4 5 5 5 6 8 10 8 6 8 13 18 17 14 17 22 23 23 25 27 29 29 29 30 32 34 33 28 24 23 26 31 36 38 36 34 33 32 32 33 33 33 33 36 37 36 35 34 32 32 32 32 35 38 37 36 34 31 30 29 28 27 27 28 29 29 29 29
3 4 4 6 7 7 8 9 6 5 7 9 7 3 1 3 2 2 4 5 6 7 7 8 10 13 14 15 17 17 15 14 17 23 25 27 28 28 30 31 32 33 34 34 31 26 25 28 32 36 40 40 37 35 36 36 36 36 35 35 35 37 40 40 37 34 33 34 34 35 39 40 38 36 36 36 36 35 33 31 29 28 29 29 29 29
3 4 2 4 7 9 11 13 11 9 9 11 10 8 3 2 4 3 6 7 8 8 7 7 12 16 17 18 17 14 14 14 17 23 27 28 29 30 32 33 34 36 35 32 29 27 28 32 37 42 43 40 38 38 38 39 39 38 36 35 36 39 44 42 37 35 35 36 36 40 45 43 36 33 35 37 39 39 38 35 32 30 29 29 30 30
4 4 1 1 6 10 13 14 13 9 8 7 7 8 7 2 3 4 7 9 8 7 9 13 17 18 17 16 14 13 16 19 22 26 28 29 31 32 34 36 37 36 32 29 28 30 34 38 41 43 42 40 40 41 42 44 43 38 32 33 38 42 45 44 41 38 37 37 40 45 46 39 31 30 32 35 38 41 40 38 34 32 32 31 32 32
3 2 2 0 7 11 11 9 6 4 4 5 4 5 7 5 2 3 6 9 9 9 13 16 19 18 13 12 13 17 23 26 27 29 30 31 32 33 36 39 36 32 30 31 34 37 40 41 42 41 41 41 43 46 46 43 38 34 36 41 44 44 45 45 41 37 36 38 42 44 41 32 26 28 33 38 41 41 42 41 38 36 35 35 33 33
1 0 2 1 7 8 2 3 2 3 2 3 4 7 8 8 6 4 5 7 9 11 14 17 18 15 9 14 20 24 27 26 27 31 34 33 34 35 37 37 33 31 34 38 41 42 43 43 42 41 42 45 49 51 47 41 40 46 51 49 43 42 44 42 38 38 40 41 41 40 35 28 25 30 39 47 48 46 46 45 41 39 38 37 35 35
1 2 0 1 7 5 3 3 4 1 3 4 6 10 11 9 8 6 6 9 11 13 16 15 12 8 10 19 25 27 27 27 27 32 35 36 38 39 36 32 32 36 41 43 44 44 45 44 43 43 46 52 55 52 47 46 51 55 52 43 38 39 40 39 39 40 40 37 35 33 31 29 29 33 41 47 49 48 47 45 42 40 40 39 37 37
1 4 3 2 6 5 2 6 10 4 4 4 5 9 10 9 9 10 10 12 13 13 13 11 8 10 16 21 23 24 27 29 29 32 35 37 38 36 32 32 35 41 44 44 45 45 44 45 46 49 52 55 56 52 47 45 46 46 41 37 37 37 39 40 39 38 38 39 41 41 40 39 39 38 40 43 44 45 44 43 42 42 42 41 39 39
1 3 4 2 3 6 7 11 12 6 2 2 6 9 11 10 11 13 13 13 14 12 9 9 11 15 19 21 21 24 29 32 34 36 36 34 32 30 32 36 41 44 45 43 43 44 46 49 51 50 51 54 56 56 50 43 39 37 35 36 41 44 46 48 45 46 51 54 54 53 49 45 41 39 38 38 39 42 42 42 43 43 41 41 41 41
1 2 3 1 2 6 7 9 8 4 2 3 4 10 14 10 12 15 13 11 13 12 11 13 15 18 23 26 28 31 35 38 40 38 33 28 27 30 36 41 44 45 43 43 46 50 51 50 48 45 46 48 49 48 44 38 35 35 39 48 55 54 52 50 47 48 50 49 47 45 42 39 37 36 37 37 37 40 40 40 42 42 40 41 43 44
2 2 3 2 3 5 4 5 6 2 4 3 3 11 15 12 14 17 14 11 11 11 12 14 17 22 28 32 33 35 38 42 41 35 26 23 29 37 41 42 42 42 46 51 54 52 47 45 46 45 44 42 40 39 39 39 41 48 57 61 59 51 45 44 43 41 40 38 36 36 34 34 36 37 38 37 36 37 38 38 39 40 41 43 44 45
2 2 3 2 1 2 4 5 5 3 2 5 6 10 13 12 12 13 13 10 8 14 18 19 20 26 31 33 35 37 38 36 31 25 23 28 35 40 40 40 43 47 52 53 50 44 41 42 42 40 37 38 40 43 47 51 55 59 60 55 47 42 39 39 38 36 35 35 35 36 35 35 35 35 35 34 34 36 37 37 38 40 41 43 44 44
2 2 3 3 1 2 4 5 5 6 3 4 9 12 14 14 16 15 12 6 9 23 31 27 24 29 33 34 35 35 32 24 16 17 29 37 40 41 41 44 46 45 44 44 43 43 42 39 37 37 42 48 53 55 54 52 51 51 49 45 42 39 38 39 39 37 36 37 37 36 35 33 33 34 34 34 35 36 37 38 39 41 41 42 44 44
1 1 2 4 3 3 4 5 5 4 2 7 11 15 17 19 22 17 8 4 12 30 36 31 30 34 33 32 33 30 23 15 11 21 37 42 43 46 47 46 43 41 41 44 44 43 43 42 45 51 54 54 54 51 46 43 42 43 43 42 41 38 37 40 41 38 37 37 36 35 34 33 33 33 32 32 33 33 34 35 36 37 38 40 42 42
3 2 2 3 3 3 3 4 5 2 4 9 15 17 21 24 21 13 7 4 19 34 36 32 32 33 31 31 31 23 16 13 17 30 42 44 46 49 45 42 42 43 44 44 43 44 48 50 52 52 50 47 45 43 41 40 40 41 41 42 41 38 38 40 41 39 38 38 38 37 35 32 31 30 30 31 33 34 33 33 33 32 33 36 38 38
3 3 2 2 4 5 3 4 5 1 4 13 19 22 26 24 13 6 6 12 25 36 38 34 31 29 29 33 31 23 22 27 32 38 43 44 46 45 42 41 42 41 41 43 45 48 51 50 47 44 44 43 42 41 39 37 38 43 47 45 40 37 39 41 41 40 40 40 39 36 32 30 30 32 35 37 39 40 39 36 35 34 33 33 34 35
3 3 2 2 4 5 3 5 6 1 6 19 23 21 21 15 4 4 13 22 29 34 36 33 29 27 30 35 33 30 33 38 39 39 42 43 43 43 42 42 43 43 45 47 48 47 46 47 48 47 45 43 41 39 35 36 47 56 54 46 41 39 42 43 41 39 39 38 36 33 33 34 36 38 40 40 39 42 44 43 41 39 38 36 33 33
5 4 3 4 5 4 4 5 5 2 9 24 23 14 12 9 5 13 23 30 33 32 32 31 29 29 33 36 36 37 38 39 39 40 42 43 43 42 42 42 43 46 47 47 46 45 45 46 47 46 44 44 41 37 37 47 60 61 50 43 42 42 41 39 36 37 38 38 40 43 47 49 48 45 43 40 39 40 43 46 47 45 44 41 35 31
4 3 3 4 4 4 4 4 6 7 14 23 21 13 11 10 13 22 29 33 34 32 30 30 29 30 33 35 36 36 36 38 40 41 43 45 44 43 43 44 45 46 46 45 45 45 44 45 46 46 45 44 40 40 48 57 58 51 43 42 41 39 37 36 36 40 44 46 50 53 52 51 49 45 40 39 39 38 40 45 50 50 47 44 39 33
5 6 6 4 3 7 7 7 9 12 16 22 22 18 14 15 21 28 29 30 31 30 29 29 29 32 35 35 34 34 35 38 40 42 44 45 43 42 44 46 45 43 44 45 45 44 43 44 45 46 47 45 41 44 52 53 46 43 45 43 40 39 41 44 47 52 56 55 51 45 40 40 41 40 39 39 39 40 41 44 48 49 46 42 39 34
7 11 9 4 5 10 9 7 10 14 19 25 23 15 15 21 27 30 27 26 27 26 25 27 29 33 34 33 33 35 37 39 42 44 43 41 40 43 45 45 43 42 44 45 45 45 44 44 44 45 47 47 43 44 49 48 42 42 43 41 40 45 50 55 58 58 55 49 41 35 35 39 41 41 40 40 40 42 42 41 42 43 41 37 35 33
6 13 10 4 6 9 7 6 14 18 23 25 19 16 21 27 27 25 23 24 25 25 25 27 29 29 30 31 34 38 39 39 40 41 38 37 40 43 43 42 42 42 44 44 44 45 45 45 45 45 46 47 48 48 48 47 42 39 40 43 48 53 55 54 51 46 43 41 40 40 42 44 43 43 43 43 44 43 41 37 35 35 34 32 31 30
6 10 9 6 7 8 9 11 19 22 21 17 16 21 28 29 25 22 21 22 23 25 26 27 26 26 30 34 35 36 37 36 35 34 35 37 40 41 40 41 41 41 43 46 45 44 45 45 46 46 47 50 52 51 49 46 42 40 43 48 52 52 49 44 41 42 47 50 51 52 52 50 49 49 48 46 43 39 35 32 29 29 31 31 30 30
8 8 8 9 8 8 9 13 20 19 13 12 20 27 28 26 25 23 22 22 22 25 28 29 27 27 30 32 31 31 33 33 31 32 35 38 39 39 39 40 40 40 44 46 45 44 44 43 44 47 50 52 52 50 48 45 43 43 47 50 48 45 43 43 47 54 58 57 56 56 55 54 54 50 44 40 36 32 30 30 28 28 30 31 31 30
8 7 9 9 6 6 9 13 17 14 11 18 28 30 26 24 23 22 24 24 23 26 32 34 34 32 29 26 27 28 30 30 30 33 36 37 37 38 39 40 42 44 45 45 45 45 44 44 45 48 50 51 50 47 45 45 46 48 49 46 43 44 47 52 57 58 57 55 54 52 50 49 46 41 36 33 31 30 31 31 27 25 28 31 32 28
10 8 10 9 7 9 13 16 18 18 20 26 30 28 25 25 23 23 26 26 23 28 34 35 36 37 34 28 26 27 28 30 31 33 35 36 35 37 38 39 41 44 44 44 44 45 46 47 49 50 50 50 48 45 44 46 48 48 46 44 45 48 51 53 54 53 51 51 49 46 43 41 38 35 32 31 30 30 31 30 25 24 28 31 28 23
Wind_Direction
266 252 236 255 315 343 187 238 287 324 336 296 291 284 277 280 281 285 84 97 38 296 265 268 275 278 284 281 283 300 307 286 287 295 297 304 295 280 270 260 261 264 265 266 269 273 267 269 281 296 303 306 306 305 304 303 302 301 298 296 296 294 292 290 289 289 289 289 287 286 286 286 286 286 287 288 289 291 292 293 296 298 300 301 304 306
239 255 261 28 41 55 65 43 354 311 296 278 270 275 276 275 282 311 89 111 113 291 280 287 289 283 280 280 286 301 305 300 310 314 319 336 334 317 293 276 274 274 288 349 35 57 74 27 354 335 323 317 315 313 310 307 304 302 300 300 300 297 294 294 293 291 291 290 288 286 285 284 284 283 284 285 287 289 291 292 294 296 298 299 301 303
233 240 60 58 68 79 79 70 47 267 266 261 259 270 276 284 299 26 96 123 162 234 294 309 301 286 280 282 293 310 309 311 319 322 330 339 342 354 5 339 335 356 19 47 47 39 34 19 356 337 329 323 319 315 311 308 304 301 300 299 299 297 296 295 293 291 289 289 287 285 284 282 281 280 281 283 284 286 288 290 292 294 295 296 297 300
265 73 69 65 86 104 99 101 182 256 251 244 249 263 273 306 322 296 122 138 239 238 289 302 288 279 279 280 286 125 244 310 317 305 318 344 3 22 35 35 26 18 20 26 30 33 33 24 7 349 338 330 323 318 314 312 309 307 304 302 300 297 296 295 293 292 290 288 286 284 282 279 278 277 277 279 281 283 285 287 289 291 292 292 293 296
282 64 77 95 91 237 239 181 215 252 269 249 240 256 279 308 322 293 313 317 284 243 264 291 282 269 260 257 116 139 183 224 13 73 81 58 49 40 35 38 32 23 21 22 25 31 34 32 22 2 345 334 328 325 320 317 317 315 312 309 305 300 298 298 297 297 294 291 287 284 282 278 276 275 275 277 280 282 283 285 286 288 288 289 290 292
291 68 101 159 146 225 244 248 229 242 282 275 254 326 321 324 321 302 316 322 304 248 147 327 311 297 194 273 359 100 127 103 89 88 82 69 55 46 42 43 41 38 35 34 32 30 27 20 10 357 346 339 335 332 327 325 323 320 317 314 311 307 304 303 302 301 299 295 292 288 285 281 278 277 277 279 281 281 282 283 283 284 285 286 288 291
86 91 170 213 214 213 241 262 223 189 274 286 3 37 3 329 308 305 314 316 302 290 304 355 297 287 282 279 106 105 97 93 93 81 75 68 61 56 51 50 47 42 37 34 30 22 15 4 354 348 345 344 340 335 331 328 326 323 321 320 317 315 312 310 308 306 304 301 298 293 289 286 282 280 281 281 281 280 280 281 280 280 281 283 286 289
114 125 178 206 227 231 248 265 177 179 270 286 98 14 336 303 289 295 297 276 275 297 293 226 230 269 285 261 130 130 111 90 87 78 74 68 64 60 55 52 45 38 31 25 21 14 10 1 353 350 348 349 344 338 335 331 330 328 326 325 323 322 320 317 315 312 309 306 303 299 293 289 285 284 283 280 277 277 277 276 277 277 278 281 284 287
86 151 188 197 225 247 275 28 59 235 262 325 80 313 305 286 276 272 268 268 273 300 292 201 196 257 274 187 142 162 133 81 84 84 75 66 61 56 50 45 38 34 27 22 20 13 12 7 0 358 355 353 348 345 344 340 339 337 333 331 328 327 324 320 318 315 313 311 308 304 297 293 290 288 285 280 274 272 272 272 273 274 276 278 281 284
58 53 230 239 248 285 33 51 33 281 257 2 7 268 261 245 247 246 247 266 270 268 272 170 178 258 285 273 185 181 142 76 99 96 73 62 55 46 40 34 28 28 23 21 21 14 13 10 3 359 354 353 352 352 351 347 344 341 338 336 333 331 328 324 321 317 315 314 312 309 304 299 296 292 287 282 275 270 271 272 272 273 274 276 278 282
100 99 151 278 298 2 33 48 40 305 293 329 280 267 265 232 212 224 235 255 257 242 248 113 179 268 291 292 333 129 119 81 111 97 68 56 46 36 30 23 19 20 19 16 15 12 10 5 357 353 350 351 350 350 349 348 345 342 339 336 333 332 329 326 324 321 318 316 313 311 309 306 302 296 288 281 276 273 272 272 273 274 274 275 277 279
140 175 154 94 349 354 296 229 172 205 244 280 269 277 288 254 202 208 199 203 243 250 73 92 212 262 261 280 32 100 112 85 91 85 65 49 37 29 22 18 17 16 14 11 8 5 359 353 349 345 344 345 345 345 345 345 346 343 342 340 337 336 333 329 325 323 322 320 318 315 312 310 307 301 290 282 278 276 274 273 273 273 273 274 275 276
167 153 111 94 99 233 266 247 188 188 198 239 263 284 300 300 273 257 245 240 261 146 107 122 326 265 257 276 69 111 119 92 87 84 71 51 31 25 21 17 17 15 12 8 3 358 352 348 344 340 339 339 340 341 342 343 345 344 343 342 340 339 337 332 327 325 325 326 325 323 319 316 313 306 296 287 281 277 275 274 273 272 272 272 273 274
225 108 134 158 151 178 261 276 263 194 210 260 298 319 308 318 309 290 289 286 288 73 124 108 21 276 263 280 96 113 111 97 94 92 82 60 30 16 15 16 17 16 10 4 358 352 347 342 337 336 335 334 336 337 338 340 342 341 340 340 340 339 338 334 330 327 327 327 328 328 327 324 319 312 303 293 287 281 276 274 273 273 272 270 271 272
289 263 163 178 84 138 245 294 345 320 300 309 1 324 291 301 298 292 306 302 299 305 181 122 8 269 274 68 113 116 107 99 95 91 82 51 21 2 5 12 12 11 5 358 352 348 344 338 331 329 330 329 330 332 334 336 338 338 337 336 337 336 335 333 329 327 326 326 327 328 329 328 324 318 309 299 291 285 280 276 274 273 272 270 270 270
263 255 85 64 354 319 269 27 14 300 285 59 30 281 265 313 302 284 293 295 299 301 271 189 225 267 262 116 122 120 113 106 84 66 54 23 7 353 359 9 8 5 359 353 349 345 341 334 324 322 323 324 324 326 329 331 332 333 333 333 333 332 333 332 329 325 322 322 324 327 329 329 327 321 314 306 297 290 285 281 276 274 272 271 269 269
278 260 119 149 209 39 7 16 351 308 321 134 271 290 333 346 316 288 287 287 286 286 263 194 232 266 217 130 137 140 131 110 70 43 22 3 360 353 358 6 2 358 354 351 347 340 333 326 316 314 318 320 321 321 321 322 324 326 326 325 325 326 328 330 329 326 321 319 319 322 325 327 327 324 318 312 304 296 289 283 278 276 273 271 270 270
308 287 154 161 218 103 56 319 269 300 327 286 285 340 347 282 272 275 283 296 288 278 271 246 269 283 293 269 161 161 137 73 36 18 5 359 360 356 357 359 355 352 350 346 340 332 327 321 312 308 313 318 320 319 317 316 317 317 316 314 315 317 320 323 327 327 325 323 322 322 323 324 326 325 321 315 309 300 289 282 280 278 276 274 272 272
308 289 200 99 33 124 152 264 241 183 307 310 314 326 310 282 266 235 267 303 301 288 286 288 292 282 280 262 159 155 112 43 16 7 2 358 359 357 355 352 349 346 342 339 336 331 325 320 313 309 312 317 320 320 318 315 314 314 313 313 313 312 314 317 322 325 326 328 331 331 327 324 323 322 321 318 313 305 293 285 283 281 279 277 276 274
290 280 304 84 102 129 187 226 243 156 135 263 277 252 168 293 285 277 293 306 294 289 292 292 285 273 293 353 109 114 69 30 9 5 1 357 356 351 347 344 341 340 338 335 332 328 323 318 312 309 312 318 320 320 318 315 313 313 313 314 314 314 315 315 317 319 319 323 332 338 337 330 324 320 319 319 316 310 301 291 285 282 280 279 279 277
254 240 284 202 151 253 235 203 330 3 88 236 245 225 212 222 255 286 277 260 274 282 290 292 285 282 19 33 66 75 48 25 13 5 356 352 348 342 339 338 336 336 334 330 328 325 321 314 308 307 312 318 319 319 319 315 313 314 315 317 317 317 316 314 312 311 311 312 320 332 338 337 330 323 319 318 316 312 307 297 287 283 282 281 280 278
296 256 282 288 267 279 333 65 30 17 4 307 280 282 295 278 278 286 272 204 257 276 291 296 288 297 357 67 76 60 36 26 18 5 356 349 342 336 335 336 335 333 328 325 324 322 317 311 306 307 314 319 321 321 321 318 317 318 318 318 317 316 314 313 310 308 306 304 306 319 330 336 334 328 321 318 317 314 310 303 292 286 283 283 282 279
344 281 277 280 275 288 73 81 55 23 356 314 283 292 318 298 275 278 286 334 342 270 300 290 275 290 15 82 80 61 51 43 20 7 358 346 338 335 334 333 331 327 322 320 320 320 316 310 307 311 318 322 323 324 323 321 320 319 318 318 317 316 314 312 309 306 303 301 299 306 320 330 333 330 324 319 315 314 312 306 297 289 286 285 284 281
332 261 268 280 275 151 100 101 84 54 296 249 233 227 274 299 320 301 297 331 312 275 273 272 268 282 85 114 91 30 4 12 11 3 354 341 335 332 329 327 325 322 320 318 319 319 316 311 313 318 323 325 325 325 323 321 320 319 319 319 318 317 316 313 309 306 303 301 298 298 311 324 329 327 326 322 317 315 311 306 299 293 291 289 285 282
317 260 292 303 298 301 114 111 105 135 249 277 254 122 82 54 62 359 286 287 276 262 252 260 270 289 111 155 347 343 340 348 356 354 346 336 330 326 323 323 323 323 321 319 320 320 316 315 318 321 323 325 324 322 321 320 319 319 318 320 320 319 317 313 309 306 302 301 300 295 303 318 324 321 322 323 321 320 316 308 301 296 296 294 288 283
299 287 297 299 306 312 315 328 348 328 314 310 310 116 111 113 135 273 281 269 265 270 265 260 269 291 315 325 330 330 334 347 350 343 336 329 325 322 321 323 324 324 323 321 321 320 318 317 319 321 322 322 321 320 319 318 317 317 316 317 321 322 320 316 310 306 302 302 301 294 296 311 320 317 314 314 313 316 317 313 307 301 299 298 293 287
288 281 271 267 275 286 300 312 322 326 312 302 306 321 145 145 159 277 272 266 296 311 285 271 291 306 315 322 322 327 340 349 341 333 329 326 325 324 323 323 325 325 323 323 323 321 319 319 319 321 322 321 319 318 317 316 315 315 314 314 318 322 322 318 310 304 301 300 300 294 293 302 314 315 312 309 307 307 310 310 309 306 303 299 295 290
268 269 284 273 267 274 288 297 302 305 298 297 313 323 316 143 147 208 247 272 313 318 289 305 326 318 312 318 325 340 351 344 332 328 327 326 326 325 325 325 325 324 325 326 327 325 323 322 322 323 322 320 318 316 315 314 313 311 310 310 314 319 321 319 312 305 301 298 299 299 296 298 306 314 315 313 308 306 305 305 306 306 304 300 295 292
280 271 37 19 273 277 277 280 287 290 291 300 313 321 325 338 162 209 254 281 302 297 287 310 319 309 307 321 340 357 349 334 327 326 325 326 327 327 326 325 324 325 328 331 331 329 327 324 324 323 321 319 317 316 314 313 312 310 308 310 313 316 319 319 312 305 301 299 300 301 298 295 299 308 315 317 313 308 303 301 303 304 303 300 297 293
288 266 99 168 278 279 270 272 282 274 289 315 329 345 346 342 311 256 272 292 297 287 290 304 306 301 310 340 353 346 337 330 327 326 327 328 328 327 325 323 324 328 332 334 331 327 325 323 322 322 321 319 317 316 315 314 316 316 316 316 316 314 316 319 313 305 303 302 302 302 297 294 292 296 306 313 312 309 304 298 298 301 301 299 296 293
277 326 91 201 287 293 254 168 194 210 269 338 30 29 8 359 359 337 304 311 311 300 300 306 303 299 328 355 343 333 333 333 331 330 329 327 327 325 323 323 327 332 332 330 326 323 322 322 321 322 323 323 323 322 321 319 319 320 320 320 319 317 317 318 311 305 305 305 307 305 299 293 289 292 301 306 307 306 303 295 293 297 298 296 293 291
227 283 279 268 300 310 117 148 263 239 111 88 50 26 8 359 357 343 328 326 321 314 311 309 305 309 342 345 334 329 334 336 334 332 328 326 325 323 321 326 332 331 327 325 323 322 322 321 321 322 325 327 329 328 325 322 321 322 322 321 319 319 318 314 308 307 311 312 312 309 300 294 294 295 298 301 304 307 303 293 289 293 295 294 292 289
338 298 308 329 305 302 30 329 310 305 134 122 59 30 9 360 354 342 333 326 318 314 313 311 321 336 339 338 333 332 335 335 333 332 327 323 321 320 324 331 330 326 324 323 322 321 320 321 322 324 325 327 328 326 322 321 321 323 322 318 316 315 315 313 310 309 311 310 307 305 302 299 297 296 294 293 299 306 303 292 289 291 292 292 290 286
23 288 302 333 296 298 324 322 304 280 233 120 85 42 12 5 358 339 327 322 317 317 324 328 334 339 338 338 336 332 330 328 327 327 323 319 319 324 329 329 326 323 323 322 322 324 325 326 327 326 325 325 323 320 318 316 317 318 318 317 316 314 312 312 310 306 306 305 303 302 302 299 296 295 293 289 291 299 299 292 288 289 290 292 288 283
254 277 298 309 274 291 312 321 311 317 62 141 110 33 12 2 351 339 328 323 323 331 349 349 340 339 338 334 331 327 323 321 321 320 318 319 327 332 330 325 323 323 323 324 328 329 329 328 327 326 324 323 321 319 318 317 318 319 317 315 315 313 310 308 306 304 304 304 303 304 303 300 297 295 297 295 292 293 293 289 286 287 291 293 289 283
296 293 303 285 283 297 313 328 327 13 88 111 41 15 6 355 352 346 332 327 341 358 5 353 339 338 336 330 327 325 322 320 318 316 318 327 334 332 327 324 324 324 326 328 329 328 327 325 322 321 321 323 325 325 324 321 317 314 312 312 312 311 309 308 307 306 305 304 305 307 306 304 300 297 297 298 296 294 293 290 287 288 292 292 287 282
305 302 316 315 343 339 318 314 300 249 139 73 33 9 2 354 347 337 314 314 9 21 5 350 339 336 334 328 326 326 325 321 317 316 324 332 333 329 326 325 326 326 327 327 327 325 323 323 323 323 325 327 326 323 320 315 312 311 312 313 313 312 313 314 312 309 309 308 308 308 307 305 303 300 299 299 299 298 296 292 288 288 290 288 285 283
325 321 326 315 333 346 310 314 315 281 268 50 21 1 2 349 331 321 296 279 25 14 358 348 339 333 330 327 328 332 331 324 313 318 329 331 330 330 329 328 327 327 328 329 328 327 327 329 329 327 325 323 319 317 316 313 313 314 314 313 312 312 313 315 313 310 308 309 309 309 307 306 304 302 301 301 303 303 301 297 293 291 290 287 286 287
14 295 286 289 299 351 331 315 316 305 355 40 8 354 357 343 327 318 281 246 14 2 350 340 331 327 328 329 333 336 332 321 313 322 328 330 329 330 331 331 329 330 331 332 331 330 329 328 324 321 321 321 319 319 319 318 317 317 315 313 312 310 311 315 314 311 309 309 310 309 307 305 304 303 303 304 306 307 307 306 302 297 293 290 289 289
32 346 336 333 324 336 328 304 307 325 45 20 357 351 352 340 324 306 268 315 355 346 338 332 326 325 330 332 333 333 324 317 318 319 324 328 328 329 331 331 330 331 331 331 331 328 326 323 321 321 323 324 323 323 322 320 320 319 317 314 310 307 308 313 314 311 310 310 309 308 306 306 306 304 302 302 304 306 308 311 312 308 301 295 293 291
26 358 3 16 338 329 312 302 316 338 60 12 357 355 352 340 318 285 296 327 338 333 328 327 326 328 332 330 327 324 317 316 317 317 322 326 327 328 331 330 329 329 328 328 326 324 322 321 322 323 323 323 323 322 322 324 323 322 319 314 309 307 310 313 312 310 311 311 310 308 306 305 303 300 299 300 302 304 305 307 312 315 313 306 298 291
7 339 350 18 340 331 311 308 311 246 52 14 360 354 359 357 323 304 323 324 328 326 322 323 327 330 331 327 323 320 317 318 318 320 323 325 326 327 328 328 328 327 325 325 325 324 324 323 323 323 323 323 323 322 322 321 319 319 318 311 305 306 310 311 311 311 314 314 314 313 310 307 305 303 303 304 304 304 304 303 306 311 315 314 306 293
346 320 1 14 348 322 305 326 331 295 8 8 2 356 12 19 329 323 328 324 324 323 320 322 327 330 331 327 322 321 321 322 322 323 325 325 325 325 325 326 327 325 325 325 326 326 326 323 322 322 321 322 323 320 318 317 318 321 320 311 307 309 311 311 311 312 312 309 310 312 310 308 307 306 305 306 306 305 304 304 305 307 309 311 308 298
7 354 348 358 12 357 318 332 347 329 346 2 1 343 341 346 335 337 334 325 321 323 323 323 324 329 331 327 322 324 325 324 323 323 323 323 323 324 324 325 325 325 325 325 325 326 326 323 322 321 320 321 321 317 316 319 322 323 320 314 314 315 311 307 306 309 310 309 309 309 307 306 307 306 304 305 305 304 303 302 304 306 306 305 304 298
53 19 325 288 350 338 292 282 321 334 347 352 342 328 331 340 340 338 332 323 321 323 323 321 323 328 329 325 323 326 325 322 320 320 320 321 322 324 324 324 324 324 325 325 325 325 325 323 322 320 320 321 320 316 320 324 323 318 315 316 317 315 310 307 308 310 311 311 309 306 305 307 309 306 304 304 302 302 301 300 300 302 302 300 297 293
54 18 337 286 332 325 291 288 333 347 347 339 330 333 346 342 336 333 328 325 324 324 325 327 327 327 325 324 323 322 320 319 319 318 319 321 322 323 323 323 323 324 325 325 325 325 325 323 322 320 320 321 320 319 322 325 321 316 316 317 315 311 309 309 310 311 312 312 310 308 309 311 311 308 306 304 303 302 301 298 296 295 294 294 292 287
41 14 351 322 337 325 297 329 353 348 338 331 332 344 340 331 329 332 332 330 327 326 330 331 329 327 325 324 322 318 317 318 319 319 321 324 323 323 323 323 323 324 325 325 325 324 324 323 322 322 321 321 322 322 323 324 322 319 318 315 312 311 312 315 316 316 316 315 314 313 313 312 310 308 307 305 304 302 299 295 290 283 282 289 291 285
345 352 345 329 326 307 289 322 342 337 325 322 334 337 329 326 330 334 334 331 327 327 329 329 329 330 326 322 320 319 319 321 322 322 324 324 323 322 322 322 323 323 324 325 325 325 324 323 322 322 322 321 322 323 324 325 323 321 320 318 317 319 322 324 322 319 317 316 314 314 313 311 309 308 305 303 302 298 294 294 289 276 275 288 295 289
323 330 335 325 314 299 299 328 341 336 317 317 330 330 327 329 332 332 332 332 330 332 332 328 327 329 326 323 323 323 322 323 325 326 324 323 322 321 320 322 322 321 323 324 325 325 324 323 322 322 321 322 323 324 324 325 324 323 323 324 327 330 328 323 318 316 316 316 315 313 312 311 309 307 304 301 299 296 293 294 291 279 277 289 296 292
347 343 340 332 319 313 326 342 346 335 312 317 326 328 329 333 332 332 335 334 333 337 336 330 327 328 328 328 328 326 325 325 325 325 324 322 320 320 320 322 322 322 324 325 324 325 324 323 323 322 321 323 324 324 323 323 323 325 326 327 329 327 322 318 317 317 316 315 314 312 311 310 308 307 304 300 300 299 298 299 294 280 279 292 298 293
2 349 337 329 312 310 323 337 339 325 310 313 321 326 330 332 331 333 335 332 330 335 336 333 330 330 329 330 331 330 327 325 324 324 323 321 321 321 322 322 322 322 324 325 325 326 326 325 325 324 323 324 325 324 323 323 323 326 327 326 324 323 321 320 320 318 316 316 314 313 312 310 308 306 304 302 302 302 302 304 299 284 285 297 299 289
Height
1523 1521 1518 1517 1515 1516 1518 1519 1520 1521 1524 1525 1524 1525 1523 1521 1516 1509 1516 1525 1525 1524 1518 1513 1511 1507 1503 1496 1491 1493 1494 1493 1493 1493 1493 1494 1494 1495 1496 1497 1497 1498 1498 1498 1499 1500 1501 1502 1503 1504 1504 1505 1506 1506 1506 1506 1506 1505 1504 1504 1502 1501 1500 1499 1498 1497 1496 1495 1494 1492 1491 1490 1489 1488 1487 1486 1484 1484 1483 1482 1482 1482 1482 1481 1481 1480
1523 1520 1516 1517 1518 1519 1521 1523 1524 1525 1525 1526 1526 1524 1521 1519 1514 1510 1519 1525 1525 1525 1516 1510 1510 1506 1500 1492 1489 1492 1492 1492 1493 1493 1493 1493 1494 1495 1495 1496 1496 1497 1497 1497 1498 1499 1500 1501 1502 1503 1503 1504 1504 1504 1504 1504 1503 1503 1502 1501 1500 1499 1497 1496 1495 1494 1493 1492 1491 1489 1488 1487 1486 1484 1483 1482 1481 1480 1479 1478 1478 1478 1478 1477 1477 1477
1519 1517 1519 1522 1522 1523 1525 1525 1526 1527 1527 1526 1524 1523 1520 1515 1512 1513 1521 1524 1524 1524 1515 1510 1511 1504 1494 1489 1487 1490 1492 1493 1494 1493 1494 1494 1494 1495 1495 1496 1496 1497 1497 1498 1499 1499 1500 1501 1501 1501 1502 1502 1502 1502 1502 1501 1501 1500 1499 1498 1497 1496 1494 1493 1492 1491 1490 1488 1487 1486 1485 1484 1483 1481 1479 1478 1477 1476 1475 1474 1474 1474 1474 1473 1473 1473
1515 1517 1523 1525 1524 1524 1525 1527 1528 1527 1525 1524 1521 1520 1517 1513 1515 1517 1520 1523 1522 1521 1517 1515 1514 1502 1490 1487 1487 1491 1493 1493 1494 1494 1494 1494 1495 1495 1496 1496 1496 1497 1498 1499 1500 1500 1500 1501 1501 1500 1501 1501 1501 1501 1500 1499 1499 1497 1496 1495 1494 1493 1491 1490 1489 1487 1487 1485 1484 1483 1482 1481 1479 1478 1476 1474 1473 1472 1471 1470 1470 1470 1470 1470 1469 1469
1517 1523 1527 1526 1526 1525 1525 1527 1527 1525 1521 1517 1517 1518 1516 1515 1520 1519 1518 1520 1516 1516 1520 1517 1509 1496 1487 1485 1485 1489 1492 1492 1493 1493 1494 1495 1495 1496 1496 1497 1498 1498 1498 1498 1499 1499 1500 1500 1501 1500 1500 1500 1499 1499 1498 1497 1496 1495 1494 1493 1491 1490 1488 1487 1485 1484 1483 1482 1480 1479 1478 1477 1475 1474 1472 1470 1469 1468 1467 1467 1466 1466 1465 1465 1466 1465
1520 1527 1528 1526 1527 1526 1526 1525 1524 1524 1520 1514 1516 1520 1520 1520 1523 1522 1521 1521 1514 1512 1517 1516 1510 1496 1484 1483 1484 1486 1489 1491 1493 1493 1493 1496 1496 1497 1498 1498 1499 1499 1499 1499 1499 1499 1500 1500 1500 1500 1499 1498 1498 1497 1496 1495 1494 1493 1491 1490 1488 1487 1485 1483 1482 1480 1479 1477 1476 1475 1474 1473 1471 1470 1468 1467 1466 1465 1464 1463 1463 1462 1461 1461 1461 1461
1524 1529 1529 1527 1527 1527 1527 1524 1521 1524 1521 1517 1520 1525 1525 1524 1525 1524 1524 1525 1517 1510 1511 1515 1517 1504 1488 1483 1484 1486 1488 1489 1492 1493 1494 1497 1497 1499 1499 1500 1500 1500 1500 1500 1500 1500 1499 1499 1499 1499 1498 1497 1497 1496 1495 1494 1492 1491 1489 1488 1486 1484 1482 1480 1479 1477 1475 1474 1472 1471 1470 1469 1467 1465 1464 1464 1463 1462 1461 1459 1459 1458 1457 1457 1457 1457
1526 1529 1529 1528 1527 1526 1524 1521 1521 1524 1523 1520 1525 1529 1526 1525 1526 1524 1525 1525 1518 1512 1509 1510 1514 1510 1496 1485 1483 1485 1488 1489 1491 1494 1496 1498 1499 1500 1501 1502 1502 1501 1501 1500 1500 1500 1499 1499 1498 1498 1497 1496 1496 1494 1493 1492 1490 1489 1487 1485 1484 1482 1480 1478 1476 1474 1472 1471 1469 1467 1466 1464 1463 1462 1462 1462 1461 1459 1458 1457 1455 1455 1454 1453 1453 1453
1526 1528 1528 1528 1527 1523 1521 1523 1524 1525 1523 1523 1528 1528 1525 1526 1525 1524 1526 1521 1517 1518 1511 1505 1510 1510 1496 1483 1482 1484 1487 1491 1493 1495 1498 1500 1501 1502 1502 1503 1502 1502 1502 1501 1501 1500 1499 1499 1498 1498 1497 1496 1494 1493 1491 1490 1488 1487 1485 1483 1482 1479 1477 1475 1473 1471 1469 1467 1466 1464 1463 1461 1460 1459 1459 1459 1458 1456 1454 1454 1453 1452 1451 1450 1450 1449
1527 1527 1527 1527 1525 1522 1523 1527 1528 1526 1525 1525 1528 1527 1525 1526 1524 1524 1524 1518 1518 1521 1511 1503 1507 1508 1493 1479 1478 1482 1488 1494 1494 1495 1500 1501 1502 1503 1503 1503 1503 1502 1502 1501 1501 1500 1499 1499 1498 1497 1496 1494 1493 1491 1490 1488 1486 1484 1483 1481 1479 1477 1475 1473 1471 1468 1466 1464 1462 1461 1459 1458 1456 1456 1455 1454 1454 1453 1451 1450 1449 1448 1448 1447 1446 1446
1528 1528 1528 1528 1526 1525 1527 1528 1528 1528 1527 1527 1527 1523 1520 1518 1520 1522 1519 1517 1519 1513 1507 1507 1507 1508 1501 1481 1474 1485 1493 1495 1494 1496 1501 1502 1502 1504 1503 1503 1503 1502 1502 1501 1501 1500 1499 1498 1497 1496 1494 1493 1491 1489 1488 1486 1484 1482 1480 1478 1477 1475 1473 1470 1468 1466 1464 1462 1459 1457 1456 1454 1453 1452 1451 1450 1449 1448 1447 1445 1445 1444 1444 1443 1443 1442
1527 1527 1526 1529 1529 1528 1529 1527 1529 1529 1528 1528 1524 1519 1515 1509 1511 1516 1515 1519 1516 1503 1507 1515 1509 1511 1507 1486 1480 1492 1498 1496 1496 1499 1502 1503 1503 1504 1504 1504 1503 1502 1502 1501 1500 1499 1498 1497 1496 1494 1493 1491 1489 1487 1485 1484 1482 1480 1478 1476 1473 1472 1470 1467 1465 1463 1460 1459 1456 1454 1452 1450 1449 1448 1447 1446 1445 1444 1443 1441 1440 1440 1439 1439 1438 1438
1522 1526 1527 1529 1530 1530 1528 1524 1525 1527 1527 1526 1519 1516 1515 1507 1505 1509 1508 1507 1502 1501 1513 1516 1512 1512 1501 1484 1486 1495 1498 1497 1498 1501 1503 1504 1504 1504 1504 1504 1503 1502 1502 1501 1500 1499 1497 1496 1494 1492 1491 1489 1487 1485 1483 1481 1479 1477 1475 1473 1471 1469 1467 1464 1462 1460 1457 1455 1453 1451 1449 1447 1445 1444 1443 1442 1441 1440 1438 1437 1436 1435 1435 1435 1434 1434
1518 1525 1528 1529 1528 1530 1530 1522 1519 1521 1521 1520 1517 1517 1517 1514 1515 1514 1506 1498 1496 1503 1514 1516 1516 1511 1492 1483 1490 1495 1496 1498 1499 1502 1504 1504 1504 1504 1504 1503 1502 1502 1501 1500 1499 1498 1497 1495 1493 1491 1489 1487 1485 1483 1481 1479 1477 1475 1473 1471 1469 1467 1464 1462 1460 1457 1455 1452 1450 1448 1446 1444 1442 1440 1439 1437 1436 1435 1434 1433 1431 1430 1430 1430 1429 1429
1519 1521 1523 1527 1527 1529 1530 1526 1524 1524 1520 1519 1520 1521 1520 1518 1521 1518 1509 1505 1502 1501 1510 1519 1518 1503 1488 1488 1492 1494 1497 1499 1500 1503 1503 1503 1503 1503 1503 1502 1502 1501 1500 1500 1499 1497 1496 1494 1492 1490 1488 1486 1484 1482 1479 1477 1475 1473 1471 1469 1467 1465 1462 1460 1458 1455 1453 1450 1448 1446 1443 1441 1439 1437 1435 1433 1432 1431 1429 1429 1427 1425 1425 1425 1424 1424
1519 1516 1524 1530 1529 1529 1530 1528 1531 1528 1522 1521 1522 1522 1520 1518 1518 1516 1510 1508 1511 1509 1510 1516 1509 1490 1484 1491 1493 1496 1498 1499 1501 1502 1502 1503 1502 1502 1502 1501 1501 1500 1500 1499 1497 1495 1494 1492 1491 1488 1486 1485 1482 1480 1477 1475 1473 1470 1468 1466 1464 1462 1460 1457 1455 1452 1450 1448 1445 1443 1440 1438 1436 1434 1432 1430 1428 1427 1425 1424 1423 1422 1421 1421 1420 1420
1520 1517 1526 1531 1528 1531 1531 1529 1532 1529 1524 1523 1521 1519 1522 1523 1521 1520 1513 1508 1514 1516 1503 1498 1496 1485 1483 1491 1494 1496 1497 1497 1500 1501 1502 1502 1501 1501 1501 1500 1500 1499 1498 1497 1495 1494 1492 1491 1489 1487 1485 1483 1481 1479 1476 1473 1471 1468 1466 1463 1461 1458 1456 1454 1452 1449 1447 1445 1442 1440 1438 1436 1433 1431 1428 1426 1425 1423 1422 1420 1419 1418 1417 1417 1416 1416
1528 1521 1523 1528 1528 1530 1533 1531 1531 1532 1529 1525 1522 1522 1524 1525 1523 1523 1521 1514 1512 1510 1495 1488 1493 1490 1487 1491 1493 1494 1496 1497 1499 1500 1501 1501 1501 1501 1500 1500 1499 1498 1496 1496 1494 1493 1491 1489 1487 1485 1483 1481 1479 1477 1474 1471 1469 1466 1464 1461 1459 1456 1454 1452 1449 1447 1444 1442 1439 1437 1435 1433 1430 1428 1425 1423 1422 1420 1419 1417 1415 1414 1413 1412 1412 1412
1533 1525 1522 1528 1529 1529 1532 1532 1527 1529 1533 1528 1526 1527 1526 1525 1522 1520 1523 1521 1515 1511 1499 1491 1495 1493 1488 1488 1491 1494 1497 1499 1500 1500 1501 1500 1499 1499 1498 1498 1497 1496 1495 1494 1493 1492 1489 1487 1486 1483 1481 1479 1477 1475 1472 1470 1467 1465 1462 1460 1457 1455 1452 1450 1447 1445 1442 1439 1437 1434 1432 1429 1427 1425 1422 1420 1418 1416 1415 1413 1411 1410 1408 1408 1407 1408
1533 1529 1523 1526 1529 1529 1529 1527 1520 1521 1530 1532 1529 1528 1527 1528 1525 1520 1522 1522 1519 1515 1507 1500 1498 1493 1486 1484 1489 1495 1498 1500 1501 1500 1499 1499 1498 1498 1498 1497 1497 1496 1495 1493 1491 1490 1488 1486 1483 1481 1479 1477 1475 1472 1470 1467 1465 1462 1460 1457 1455 1453 1450 1448 1446 1444 1441 1437 1435 1432 1429 1427 1424 1422 1419 1417 1415 1413 1411 1409 1407 1406 1404 1403 1403 1403
1532 1531 1525 1524 1528 1526 1521 1520 1518 1516 1522 1526 1525 1525 1526 1526 1526 1525 1521 1519 1519 1515 1510 1507 1501 1490 1486 1488 1491 1495 1499 1500 1501 1501 1500 1500 1500 1500 1500 1499 1497 1496 1494 1493 1491 1488 1486 1483 1481 1479 1477 1475 1473 1470 1468 1466 1463 1460 1458 1455 1453 1451 1448 1446 1444 1441 1439 1435 1432 1429 1427 1424 1422 1419 1416 1414 1412 1409 1407 1406 1403 1402 1400 1399 1398 1398
1533 1531 1527 1524 1522 1518 1516 1522 1525 1522 1522 1522 1520 1521 1521 1521 1524 1526 1520 1518 1522 1520 1515 1515 1507 1493 1489 1491 1493 1496 1500 1501 1501 1502 1501 1501 1501 1501 1500 1499 1498 1495 1493 1491 1489 1487 1484 1481 1479 1477 1475 1473 1471 1468 1466 1464 1461 1458 1456 1453 1451 1448 1446 1443 1440 1438 1435 1433 1430 1426 1424 1421 1418 1416 1413 1411 1408 1406 1404 1402 1400 1398 1396 1395 1394 1394
1538 1534 1530 1526 1519 1515 1521 1527 1528 1527 1526 1525 1524 1523 1522 1522 1524 1524 1520 1521 1525 1524 1520 1521 1515 1500 1491 1492 1495 1498 1500 1501 1502 1502 1501 1501 1501 1500 1499 1498 1496 1494 1493 1490 1488 1485 1482 1479 1477 1475 1473 1472 1469 1466 1464 1461 1459 1456 1454 1451 1448 1445 1443 1440 1437 1435 1432 1430 1427 1424 1421 1418 1415 1412 1410 1408 1405 1403 1400 1398 1397 1395 1393 1391 1390 1389
1540 1533 1530 1525 1514 1514 1525 1529 1528 1530 1529 1525 1524 1524 1526 1527 1527 1528 1527 1528 1529 1525 1521 1520 1512 1498 1493 1495 1497 1498 1500 1501 1502 1502 1502 1502 1501 1500 1499 1497 1495 1492 1490 1488 1486 1483 1480 1478 1476 1475 1472 1470 1467 1464 1462 1459 1457 1454 1451 1448 1445 1442 1440 1437 1434 1432 1429 1426 1424 1421 1417 1415 1412 1409 1407 1405 1402 1400 1398 1395 1393 1391 1389 1388 1386 1385
1539 1529 1528 1527 1517 1513 1518 1520 1523 1527 1525 1521 1520 1525 1529 1531 1534 1536 1532 1532 1531 1522 1518 1519 1509 1495 1494 1497 1496 1497 1499 1500 1502 1503 1503 1502 1501 1499 1497 1495 1493 1491 1488 1486 1483 1480 1478 1476 1475 1474 1472 1469 1466 1463 1460 1457 1455 1452 1449 1446 1443 1439 1436 1434 1431 1428 1425 1423 1420 1417 1414 1412 1409 1407 1404 1402 1399 1397 1395 1393 1391 1388 1386 1384 1383 1381
1541 1532 1530 1531 1527 1522 1518 1516 1520 1523 1522 1519 1520 1528 1534 1534 1536 1536 1531 1531 1528 1519 1516 1517 1508 1495 1495 1498 1498 1499 1500 1500 1503 1504 1503 1502 1501 1498 1495 1493 1491 1489 1487 1484 1481 1479 1477 1475 1474 1472 1470 1467 1465 1461 1458 1455 1452 1449 1446 1443 1440 1437 1433 1430 1427 1424 1421 1419 1416 1413 1410 1408 1406 1404 1401 1399 1396 1394 1392 1390 1388 1386 1383 1381 1379 1378
1542 1536 1534 1532 1530 1527 1523 1521 1523 1525 1525 1523 1522 1528 1534 1537 1538 1537 1534 1530 1525 1522 1518 1512 1507 1504 1503 1504 1503 1502 1503 1504 1505 1504 1502 1501 1499 1497 1495 1493 1491 1489 1487 1483 1481 1478 1477 1475 1473 1471 1468 1466 1463 1460 1457 1453 1450 1446 1443 1440 1437 1434 1431 1427 1423 1420 1417 1414 1412 1409 1406 1404 1402 1400 1398 1396 1393 1391 1388 1386 1384 1382 1380 1377 1375 1374
1543 1537 1537 1537 1533 1530 1528 1525 1525 1526 1527 1526 1527 1529 1531 1535 1539 1541 1538 1530 1526 1529 1522 1509 1510 1514 1509 1506 1506 1506 1507 1508 1506 1505 1503 1501 1499 1497 1495 1492 1491 1488 1485 1483 1480 1478 1476 1474 1472 1469 1466 1463 1461 1458 1454 1451 1447 1444 1440 1436 1434 1431 1428 1424 1419 1416 1413 1410 1407 1404 1402 1400 1398 1396 1394 1393 1390 1388 1385 1382 1380 1378 1376 1374 1371 1370
1543 1538 1542 1544 1539 1535 1532 1528 1526 1527 1528 1528 1530 1531 1531 1533 1538 1541 1539 1533 1532 1534 1526 1515 1517 1518 1511 1509 1510 1511 1511 1510 1507 1506 1504 1501 1499 1497 1494 1491 1489 1486 1484 1482 1480 1478 1476 1473 1470 1467 1464 1461 1458 1454 1451 1447 1443 1440 1437 1434 1430 1427 1424 1420 1416 1412 1409 1405 1403 1400 1397 1395 1393 1390 1388 1388 1386 1384 1382 1379 1376 1374 1372 1370 1368 1365
1544 1538 1543 1548 1543 1534 1529 1527 1528 1530 1531 1531 1532 1533 1532 1532 1534 1537 1537 1534 1532 1532 1526 1521 1520 1517 1512 1512 1513 1513 1514 1512 1509 1506 1503 1502 1499 1497 1494 1490 1487 1485 1483 1481 1480 1478 1475 1472 1469 1465 1462 1459 1455 1451 1447 1442 1438 1436 1433 1430 1427 1423 1419 1416 1412 1408 1405 1402 1399 1395 1393 1390 1388 1385 1382 1381 1381 1379 1378 1375 1372 1369 1367 1366 1364 1361
1545 1540 1543 1546 1539 1528 1526 1530 1531 1530 1532 1533 1534 1535 1534 1533 1533 1534 1535 1533 1531 1529 1526 1523 1521 1515 1512 1514 1514 1514 1514 1512 1509 1505 1502 1501 1499 1497 1494 1489 1486 1484 1483 1481 1480 1477 1473 1470 1466 1463 1459 1455 1451 1447 1443 1438 1435 1431 1428 1424 1421 1418 1415 1411 1408 1404 1401 1397 1394 1391 1388 1386 1384 1381 1376 1374 1373 1372 1371 1369 1366 1364 1362 1361 1359 1357
1547 1542 1540 1541 1535 1525 1525 1530 1527 1528 1534 1537 1539 1540 1538 1537 1536 1536 1535 1533 1532 1530 1526 1523 1520 1515 1514 1515 1515 1513 1513 1512 1510 1507 1503 1500 1498 1495 1492 1488 1486 1485 1483 1481 1478 1474 1470 1467 1463 1460 1456 1451 1447 1443 1439 1435 1431 1426 1423 1420 1417 1414 1411 1408 1404 1400 1396 1393 1390 1388 1385 1382 1380 1378 1374 1369 1366 1365 1364 1361 1359 1358 1357 1355 1354 1352
1549 1545 1539 1540 1537 1526 1522 1526 1524 1526 1533 1537 1541 1544 1542 1540 1539 1537 1536 1535 1532 1530 1527 1523 1521 1519 1519 1519 1515 1510 1509 1509 1510 1509 1506 1501 1497 1494 1491 1488 1487 1486 1483 1480 1476 1472 1468 1464 1460 1457 1452 1448 1445 1442 1438 1434 1429 1424 1420 1417 1413 1409 1407 1404 1400 1396 1393 1390 1387 1384 1381 1378 1375 1372 1370 1366 1362 1359 1358 1355 1353 1352 1351 1350 1348 1347
1552 1549 1542 1542 1541 1530 1524 1526 1522 1519 1526 1534 1541 1544 1542 1541 1541 1540 1538 1535 1531 1529 1528 1525 1524 1524 1524 1522 1518 1514 1510 1509 1510 1510 1508 1503 1498 1495 1492 1489 1488 1485 1482 1478 1475 1471 1467 1462 1458 1454 1449 1446 1442 1438 1435 1431 1428 1423 1418 1413 1409 1406 1403 1400 1396 1391 1387 1384 1381 1378 1375 1372 1368 1365 1363 1361 1358 1354 1352 1350 1347 1346 1345 1344 1342 1341
1551 1549 1544 1544 1544 1536 1529 1529 1524 1521 1528 1537 1540 1541 1542 1542 1541 1539 1537 1534 1531 1529 1529 1530 1530 1529 1527 1524 1522 1519 1515 1511 1510 1509 1506 1503 1499 1496 1493 1490 1486 1483 1479 1476 1473 1469 1465 1460 1456 1452 1448 1443 1439 1435 1431 1427 1423 1418 1413 1410 1407 1403 1399 1395 1390 1386 1382 1378 1375 1371 1368 1365 1362 1359 1356 1355 1353 1350 1347 1345 1342 1340 1339 1338 1336 1334
1550 1548 1545 1543 1542 1537 1533 1534 1533 1531 1535 1539 1539 1540 1542 1541 1539 1538 1535 1532 1531 1532 1533 1534 1533 1530 1529 1526 1523 1521 1516 1511 1508 1506 1505 1502 1499 1498 1494 1489 1486 1482 1478 1474 1470 1467 1463 1459 1454 1451 1446 1442 1437 1432 1428 1423 1419 1414 1409 1405 1402 1397 1393 1389 1384 1380 1376 1373 1369 1366 1363 1360 1356 1353 1351 1349 1347 1345 1343 1340 1338 1335 1334 1332 1330 1328
1550 1548 1546 1543 1542 1542 1541 1537 1533 1529 1532 1539 1544 1545 1545 1545 1544 1544 1540 1534 1533 1535 1535 1534 1531 1529 1528 1526 1522 1520 1516 1510 1504 1502 1503 1502 1499 1497 1494 1490 1486 1482 1477 1473 1469 1465 1462 1457 1452 1448 1444 1440 1435 1431 1426 1421 1416 1410 1403 1399 1395 1391 1387 1383 1379 1375 1371 1368 1364 1361 1358 1355 1352 1348 1346 1344 1342 1339 1337 1335 1333 1331 1329 1327 1324 1322
1551 1549 1549 1546 1543 1544 1544 1541 1535 1530 1532 1543 1549 1548 1549 1548 1546 1545 1542 1535 1532 1534 1535 1533 1531 1530 1527 1525 1521 1518 1514 1508 1500 1496 1498 1500 1498 1495 1492 1488 1484 1480 1475 1471 1465 1460 1456 1453 1449 1445 1441 1437 1432 1427 1423 1418 1411 1406 1400 1394 1390 1386 1382 1378 1375 1371 1367 1363 1360 1356 1353 1351 1348 1344 1342 1340 1337 1334 1332 1330 1328 1325 1323 1321 1319 1317
1551 1549 1549 1547 1544 1545 1548 1547 1541 1534 1538 1549 1552 1548 1548 1548 1543 1542 1539 1531 1529 1534 1538 1536 1534 1531 1528 1525 1522 1518 1515 1509 1500 1495 1496 1497 1494 1492 1489 1484 1480 1476 1472 1467 1462 1457 1452 1448 1445 1441 1437 1433 1427 1422 1418 1413 1407 1402 1396 1391 1387 1382 1377 1373 1370 1366 1362 1359 1356 1353 1349 1347 1344 1341 1338 1335 1332 1330 1327 1325 1322 1320 1318 1316 1313 1312
1551 1550 1548 1548 1547 1547 1551 1550 1539 1534 1544 1554 1552 1549 1548 1545 1541 1540 1537 1530 1530 1537 1541 1540 1537 1533 1530 1527 1524 1520 1518 1513 1505 1499 1498 1496 1493 1489 1487 1483 1478 1474 1469 1465 1461 1456 1450 1446 1441 1436 1432 1428 1422 1417 1412 1407 1402 1398 1393 1388 1383 1378 1373 1369 1365 1362 1358 1355 1351 1348 1345 1342 1339 1336 1333 1330 1327 1325 1323 1320 1318 1316 1313 1310 1308 1307
1555 1554 1552 1553 1552 1549 1551 1552 1542 1540 1551 1556 1551 1549 1548 1541 1538 1542 1543 1541 1542 1542 1541 1540 1539 1535 1532 1529 1525 1522 1519 1515 1510 1504 1500 1497 1492 1488 1485 1482 1478 1474 1470 1465 1461 1456 1449 1443 1439 1434 1430 1424 1419 1413 1408 1403 1398 1394 1390 1385 1379 1374 1370 1366 1361 1358 1354 1350 1347 1344 1341 1338 1335 1332 1329 1326 1323 1320 1317 1315 1313 1311 1309 1306 1304 1302
1562 1560 1555 1556 1558 1553 1552 1553 1546 1544 1552 1556 1553 1552 1549 1546 1548 1552 1552 1551 1550 1546 1542 1540 1538 1535 1533 1530 1526 1522 1518 1514 1510 1505 1499 1496 1492 1487 1483 1480 1475 1471 1466 1462 1458 1454 1447 1439 1434 1430 1425 1420 1416 1410 1405 1400 1394 1389 1385 1380 1376 1371 1366 1362 1358 1354 1350 1346 1342 1339 1336 1333 1330 1327 1324 1322 1319 1315 1311 1309 1308 1306 1304 1302 1300 1298
1570 1566 1558 1558 1562 1560 1555 1554 1553 1553 1554 1555 1555 1554 1553 1556 1561 1559 1555 1552 1551 1548 1544 1540 1537 1536 1533 1528 1524 1520 1515 1510 1506 1502 1498 1494 1490 1486 1482 1478 1474 1469 1464 1459 1454 1449 1444 1437 1430 1425 1421 1417 1413 1408 1403 1397 1389 1382 1378 1374 1370 1367 1363 1359 1354 1350 1345 1341 1337 1334 1330 1327 1325 1322 1319 1317 1314 1311 1307 1304 1302 1300 1299 1297 1296 1294
1573 1571 1568 1566 1567 1567 1563 1559 1559 1560 1559 1559 1560 1560 1559 1562 1563 1559 1554 1551 1548 1546 1543 1539 1537 1535 1533 1529 1523 1518 1514 1509 1504 1500 1496 1491 1487 1484 1480 1476 1472 1467 1461 1456 1451 1446 1441 1434 1427 1422 1418 1414 1411 1406 1401 1394 1385 1377 1373 1370 1366 1363 1359 1354 1349 1345 1341 1337 1333 1329 1325 1322 1319 1317 1315 1312 1310 1306 1303 1299 1296 1294 1293 1292 1291 1289
1576 1577 1577 1573 1570 1571 1569 1563 1562 1563 1563 1564 1565 1564 1562 1562 1561 1558 1556 1552 1548 1546 1543 1540 1537 1534 1532 1528 1523 1518 1514 1510 1504 1500 1495 1490 1486 1482 1478 1473 1470 1465 1459 1454 1448 1443 1439 1433 1427 1420 1414 1411 1408 1402 1396 1390 1383 1375 1370 1367 1363 1359 1354 1348 1344 1340 1336 1332 1329 1325 1320 1317 1314 1312 1310 1308 1305 1302 1298 1295 1291 1289 1287 1286 1284 1283
1577 1578 1577 1574 1572 1572 1567 1562 1563 1565 1565 1566 1566 1563 1562 1561 1559 1557 1555 1552 1549 1547 1544 1541 1537 1534 1531 1527 1522 1518 1514 1510 1504 1498 1494 1490 1485 1481 1476 1471 1466 1462 1457 1450 1445 1440 1436 1430 1424 1418 1410 1405 1403 1398 1392 1387 1382 1375 1369 1364 1360 1355 1350 1344 1339 1335 1330 1327 1323 1320 1316 1312 1309 1307 1305 1302 1300 1296 1293 1289 1286 1282 1281 1280 1279 1277
1577 1578 1577 1574 1576 1575 1566 1560 1564 1566 1566 1566 1564 1562 1562 1561 1559 1557 1554 1551 1549 1546 1543 1541 1538 1535 1532 1528 1523 1517 1513 1509 1504 1498 1493 1490 1484 1479 1474 1468 1463 1458 1454 1449 1443 1438 1432 1426 1419 1413 1407 1401 1397 1393 1387 1382 1378 1373 1368 1362 1357 1351 1346 1340 1335 1330 1326 1322 1318 1314 1311 1308 1304 1301 1298 1296 1293 1290 1286 1283 1281 1277 1275 1275 1274 1273
1579 1579 1578 1577 1577 1575 1567 1564 1566 1567 1567 1566 1563 1562 1560 1558 1556 1556 1554 1551 1548 1545 1542 1540 1537 1534 1530 1526 1522 1516 1510 1507 1503 1497 1492 1488 1483 1477 1472 1467 1462 1456 1450 1445 1441 1436 1430 1423 1416 1410 1405 1399 1393 1388 1383 1378 1374 1370 1365 1359 1353 1347 1341 1336 1331 1326 1321 1317 1313 1309 1306 1302 1299 1295 1291 1288 1285 1282 1279 1277 1275 1273 1271 1270 1270 1269
1583 1581 1581 1580 1577 1573 1568 1567 1567 1565 1563 1563 1562 1561 1560 1556 1554 1553 1551 1550 1547 1543 1540 1537 1535 1534 1530 1524 1520 1515 1510 1505 1502 1497 1493 1487 1482 1476 1471 1466 1460 1455 1448 1443 1438 1433 1428 1422 1415 1409 1402 1396 1390 1384 1379 1375 1371 1367 1361 1355 1349 1344 1339 1333 1327 1321 1316 1313 1308 1304 1300 1296 1292 1289 1284 1281 1279 1277 1274 1272 1271 1269 1267 1266 1266 1265
1585 1583 1583 1581 1578 1574 1572 1571 1571 1567 1563 1561 1561 1560 1557 1556 1554 1551 1549 1547 1544 1541 1538 1533 1529 1528 1527 1523 1519 1514 1509 1504 1500 1496 1492 1486 1481 1475 1470 1464 1458 1452 1446 1441 1435 1429 1425 1420 1414 1408 1401 1394 1389 1383 1378 1373 1368 1363 1358 1353 1348 1342 1336 1330 1323 1317 1312 1309 1304 1299 1295 1290 1286 1283 1280 1277 1274 1272 1269 1267 1266 1265 1263 1262 1261 1260
1587 1586 1585 1583 1581 1578 1575 1574 1574 1571 1566 1562 1560 1559 1557 1554 1552 1550 1547 1545 1542 1539 1536 1532 1526 1522 1519 1518 1516 1512 1507 1503 1499 1494 1489 1484 1479 1474 1468 1463 1457 1450 1444 1439 1433 1427 1422 1416 1410 1404 1397 1391 1386 1381 1376 1371 1365 1360 1355 1351 1345 1340 1334 1328 1321 1314 1309 1305 1300 1295 1291 1286 1282 1280 1277 1274 1271 1269 1265 1263 1261 1260 1259 1258 1257 1255